Location: Little Chesterford
(52.0500°N, 0.1833°E)
Time: 17:01:46
(UTC+00:00)

Cosmos 2333 - Pass Details

Date: 26 September 2023
Orbit: 828 x 866 km, 70.9° (Epoch: 07 December)

Event Time Altitude Azimuth Distance (km) Brightness Sun altitude
Rises 19:09:48 0° 209° (SSW) 3,361 7.5 -13.1°
Reaches altitude 10° 19:12:12 10° 209° (SSW) 2,434 6.8 -13.5°
Maximum altitude 19:17:48 89° 293° (WNW) 843 4.2 -14.3°
Drops below altitude 10° 19:23:29 10° 31° (NNE) 2,469 6.5 -15.2°
Sets 19:25:57 0° 32° (NNE) 3,414 7.2 -15.5°
